www.pogodaiklimat.ru

Погода и климат >> Архив погоды >> Австралия >> Coober Pedy Airport


ПОГОДА в Coober Pedy Airport

  • Прогноз погоды в Coober Pedy Airport
  • Монитор погоды в Coober Pedy Airport
  • Климат города

АРХИВ ПОГОДЫ в Coober Pedy Airport

Время (UTC), дата Ветер
(напр.,м/с)
 
Видим.   Явления Облачность Т
(С)
Тd
(С)
f
(%)
Тe
(С)
Тes
(С)
Комфортность P
(гПа)
Po
(гПа)
Тmin
(С)
Tmax
(С)
R
(мм)
S
(см)
22 18.03 В 4 н/о н/о +23.6 -2.1 18 +22 +22 комфорт 1014.0 988.2
23 18.03 В 3 н/о н/о +27.6 -2.3 14 +25 +25 комфорт 1014.3 988.5
00 19.03 В 7 н/о н/о +30.3 -1.2 13 +27 +27 жарко 1014.3 988.5
01 19.03 СВ 6 н/о н/о +31.9 +0.1 13 +29 +29 жарко 1013.7 988.0
02 19.03 СВ 5 н/о н/о +33.2 0.0 12 +30 +30 жарко 1012.7 987.0
03 19.03 СВ 4 н/о н/о +34.9 -1.2 10 +31 +31 жарко 1011.8 986.1
04 19.03 СВ 3 н/о н/о +35.8 -3.5 8 +32 +32 жарко 1010.9 985.2
05 19.03 СЗ 3 н/о н/о +36.4 -3.1 8 +32 +32 жарко 1010.1 984.4
06 19.03 Ю 3 н/о н/о +35.9 -3.5 8 +32 +32 жарко 1009.3 983.7
07 19.03 В 3 н/о н/о +36.5 -4.8 7 +32 +32 жарко 1008.8 983.2
08 19.03 Ю 3 н/о н/о +36.1 -5.1 7 +32 +32 жарко 1008.8 983.2
09 19.03 В 4 н/о н/о +34.8 -6.0 7 +31 +31 жарко 1009.1 983.5
10 19.03 В 3 н/о н/о +31.7 -5.0 9 +28 +28 жарко 1009.6 984.0
11 19.03 В 3 н/о н/о +29.4 -5.4 10 +26 +26 жарко 1010.1 984.4
12 19.03 В 4 н/о н/о +28.4 -4.9 11 +25 +25 комфорт 1010.7 985.0
13 19.03 В 5 н/о н/о +26.4 -3.2 14 +24 +24 комфорт 1010.4 984.7
14 19.03 В 3 н/о н/о +25.1 -0.9 18 +23 +23 комфорт 1010.1 984.4
15 19.03 СВ 3 н/о н/о +24.3 +0.6 21 +23 +23 комфорт 1009.6 984.0
16 19.03 СВ 5 н/о н/о +24.2 +1.8 23 +23 +23 комфорт 1009.3 983.7
17 19.03 С 5 н/о н/о +23.8 +4.2 28 +23 +23 комфорт 1009.0 983.4
18 19.03 В 5 н/о н/о +22.1 +3.3 29 +22 +22 комфорт 1008.8 983.2
19 19.03 СВ 3 н/о н/о +21.9 +5.3 34 +22 +22 комфорт 1008.8 983.2
20 19.03 СВ 5 н/о н/о +22.1 +6.7 37 +23 +23 комфорт 1008.9 983.3
21 19.03 С 5 н/о н/о +21.7 +6.8 38 +22 +22 комфорт 1009.6 984.0
23 19.03 З 6 н/о н/о +26.5 +7.5 30 +26 +26 жарко 1010.8 985.1
22 19.03 СЗ 3 н/о н/о +23.5 +7.6 36 +24 +24 комфорт 1009.8 984.2
00 20.03 З 8 н/о н/о +29.5 +5.6 22 +28 +28 жарко 1011.0 985.3
01 20.03 З 6 н/о н/о +31.7 +5.3 19 +30 +30 жарко 1010.7 985.0
02 20.03 ЮЗ 5 н/о н/о +33.6 +5.2 17 +31 +31 жарко 1010.1 984.4
03 20.03 ЮЗ 3 н/о н/о +34.3 +3.0 14 +31 +31 жарко 1009.4 983.8
05 20.03 Ю 4 н/о н/о +35.1 -1.1 10 +31 +31 жарко 1008.1 982.5
04 20.03 З 3 н/о н/о +35.6 +1.8 12 +32 +32 жарко 1008.5 982.9
06 20.03 Ю 3 н/о н/о +35.6 -0.7 10 +32 +32 жарко 1007.6 982.0
07 20.03 ЮЗ 4 н/о н/о +35.6 -0.7 10 +32 +32 жарко 1007.4 981.8
08 20.03 ЮЗ 4 н/о н/о +36.0 -0.4 10 +32 +32 жарко 1007.4 981.8
09 20.03 ЮЗ 3 н/о н/о +34.8 +4.4 15 +32 +32 жарко 1007.8 982.2
11 20.03 ЮЗ 6 н/о н/о +31.2 +6.3 21 +30 +30 жарко 1009.1 983.5
10 20.03 Ю 6 н/о н/о +32.9 +5.5 18 +31 +31 жарко 1008.5 982.9
12 20.03 Ю 10 н/о н/о +29.4 +11.0 32 +30 +30 жарко 1009.7 984.1
13 20.03 Ю 11 н/о н/о +25.8 +13.0 45 +28 +28 жарко 1010.1 984.4
14 20.03 Ю 11 н/о н/о +23.6 +12.9 51 +26 +26 жарко 1010.3 984.6
15 20.03 ЮЗ 10 н/о н/о +22.5 +12.7 54 +25 +25 комфорт 1010.3 984.6
17 20.03 Ю 10 н/о н/о +20.0 +13.2 65 +21 +21 комфорт 1010.1 984.4
16 20.03 Ю 10 н/о н/о +21.1 +12.5 58 +23 +23 комфорт 1010.2 984.5
18 20.03 ЮЗ 10 н/о н/о +19.1 +13.3 69 +19 +19 1010.4 984.7
19 20.03 ЮЗ 7 н/о н/о +18.5 +12.9 70 +18 +18 1011.2 985.5
20 20.03 ЮЗ 7 н/о н/о +18.1 +13.0 72 +17 +17 1011.9 986.2
21 20.03 ЮЗ 9 н/о н/о +17.7 +12.8 73 +17 +17 1012.7 987.0
23 20.03 ЮЗ 9 н/о н/о +19.0 +12.3 65 +19 +19 1013.2 987.5
22 20.03 ЮЗ 10 н/о н/о +18.0 +12.5 70 +17 +17 1012.7 987.0
00 21.03 ЮЗ 8 н/о н/о +21.0 +11.6 55 +23 +23 комфорт 1013.7 988.0
01 21.03 ЮЗ 7 н/о н/о +22.9 +11.6 49 +25 +25 комфорт 1013.7 988.0
02 21.03 ЮЗ 7 н/о н/о +25.3 +11.5 42 +27 +27 жарко 1013.3 987.6
03 21.03 ЮЗ 8 н/о н/о +25.2 +11.0 41 +26 +26 жарко 1012.9 987.2
04 21.03 ЮЗ 7 н/о н/о +27.5 +10.7 35 +28 +28 жарко 1012.0 986.3
05 21.03 ЮЗ 6 н/о н/о +28.7 +9.4 30 +29 +29 жарко 1011.3 985.6
06 21.03 ЮЗ 6 н/о н/о +29.3 +8.9 28 +29 +29 жарко 1010.5 984.8
07 21.03 ЮЗ 6 н/о н/о +30.3 +9.2 27 +30 +30 жарко 1010.3 984.6
08 21.03 ЮЗ 5 н/о н/о +29.9 +8.3 26 +29 +29 жарко 1010.5 984.8
09 21.03 ЮЗ 6 н/о н/о +29.0 +7.6 26 +28 +28 жарко 1010.9 985.2
10 21.03 ЮЗ 4 н/о н/о +27.4 +7.3 28 +27 +27 жарко 1011.6 985.9
11 21.03 ЮЗ 3 н/о н/о +25.2 +5.9 29 +25 +25 комфорт 1012.7 987.0
12 21.03 ЮЗ 3 н/о н/о +23.9 +5.8 31 +24 +24 комфорт 1013.2 987.5
13 21.03 Ю 3 н/о н/о +23.0 +5.9 33 +23 +23 комфорт 1013.2 987.5
14 21.03 Ю 4 н/о н/о +22.2 +5.6 34 +23 +23 комфорт 1013.0 987.3
15 21.03 Ю 4 н/о н/о +21.3 +5.6 36 +22 +22 комфорт 1012.9 987.2
16 21.03 Ю 6 н/о н/о +20.9 +6.4 39 +22 +22 комфорт 1012.9 987.2
17 21.03 Ю 7 н/о н/о +20.2 +12.2 60 +22 +22 комфорт 1012.8 987.1
18 21.03 Ю 6 н/о н/о +19.4 +12.4 64 +20 +20 1013.0 987.3
19 21.03 Ю 6 н/о н/о +18.5 +12.3 67 +19 +19 1013.0 987.3
20 21.03 Ю 6 н/о н/о +17.7 +12.2 70 +17 +17 1013.6 987.9
21 21.03 Ю 5 н/о н/о +17.2 +12.7 75 +17 +17 1014.2 988.4
22 21.03 Ю 5 н/о н/о +18.0 +13.3 74 +18 +18 1014.7 988.9
23 21.03 Ю 6 н/о н/о +20.3 +13.7 66 +22 +22 комфорт 1015.2 989.4
00 22.03 Ю 5 н/о н/о +22.8 +12.4 52 +26 +26 жарко 1015.7 989.9
02 22.03 Ю 4 н/о н/о +27.3 +10.9 36 +28 +28 жарко 1014.6 988.8
01 22.03 Ю 5 н/о н/о +25.0 +11.9 44 +27 +27 жарко 1015.4 989.6
03 22.03 ЮЗ 5 н/о н/о +28.7 +9.9 31 +29 +29 жарко 1013.7 988.0
04 22.03 Ю 5 н/о н/о +30.3 +11.3 31 +31 +31 жарко 1012.8 987.1
05 22.03 Ю 6 н/о н/о +30.0 +11.0 31 +30 +30 жарко 1012.1 986.4
06 22.03 ЮЗ 6 н/о н/о +32.2 +10.8 27 +32 +32 жарко 1011.6 985.9
08 22.03 Ю 7 н/о н/о +31.2 +6.3 21 +30 +30 жарко 1011.5 985.8
07 22.03 ЮЗ 7 н/о н/о +31.9 +9.4 25 +31 +31 жарко 1011.6 985.9
09 22.03 Ю 6 н/о н/о +29.9 +4.5 20 +28 +28 жарко 1012.0 986.3
10 22.03 Ю 4 н/о н/о +27.3 +5.0 24 +26 +26 жарко 1012.6 986.9
11 22.03 Ю 4 н/о н/о +25.0 +5.7 29 +25 +25 комфорт 1013.3 987.6
12 22.03 Ю 4 н/о н/о +24.5 +6.3 31 +24 +24 комфорт 1013.6 987.9
14 22.03 Ю 4 н/о н/о +23.2 +8.1 38 +24 +24 комфорт 1013.5 987.8
13 22.03 Ю 4 н/о н/о +24.4 +8.0 35 +25 +25 комфорт 1013.8 988.1
15 22.03 ЮВ 5 н/о н/о +22.5 +9.6 44 +24 +24 комфорт 1013.1 987.4
16 22.03 ЮВ 4 н/о н/о +21.4 +9.6 47 +23 +23 комфорт 1012.7 987.0
17 22.03 ЮВ 4 н/о н/о +20.7 +10.2 51 +23 +23 комфорт 1012.6 986.9
18 22.03 ЮВ 4 н/о н/о +21.2 +11.2 53 +23 +23 комфорт 1012.4 986.7
20 22.03 ЮВ 5 н/о н/о +19.9 +12.4 62 +22 +22 комфорт 1013.2 987.5
19 22.03 ЮВ 4 н/о н/о +19.7 +10.9 57 +21 +21 комфорт 1012.6 986.9
21 22.03 В 5 н/о н/о +19.7 +12.9 65 +21 +21 комфорт 1013.6 987.9
22 22.03 ЮВ 5 н/о н/о +20.9 +13.4 62 +23 +23 комфорт 1014.0 988.2
23 22.03 ЮВ 6 н/о н/о +23.7 +13.8 54 +26 +26 жарко 1014.3 988.5
00 23.03 В 5 н/о н/о +26.7 +13.8 45 +29 +29 жарко 1014.4 988.6
01 23.03 В 3 н/о н/о +28.2 +11.7 36 +29 +29 жарко 1014.5 988.7
02 23.03 ЮВ 2 н/о н/о +30.4 +11.4 31 +31 +31 жарко 1013.8 988.1
03 23.03 ЮВ 3 н/о н/о +30.6 +9.5 27 +30 +30 жарко 1012.9 987.2
04 23.03 Ю 4 н/о н/о +32.4 +6.6 20 +31 +31 жарко 1011.9 986.2
05 23.03 Ю 3 н/о н/о +34.2 +7.3 19 +32 +32 жарко 1011.1 985.4
06 23.03 Ю 4 н/о н/о +33.8 +6.2 18 +32 +32 жарко 1010.5 984.8
07 23.03 Ю 5 н/о н/о +33.9 +4.6 16 +31 +31 жарко 1010.5 984.8
08 23.03 ЮВ 4 н/о н/о +33.6 +8.3 21 +32 +32 жарко 1010.6 984.9
09 23.03 Ю 5 н/о н/о +32.8 +8.3 22 +31 +31 жарко 1010.8 985.1
10 23.03 Ю 5 н/о н/о +31.2 +7.0 22 +30 +30 жарко 1011.6 985.9
11 23.03 Ю 4 н/о н/о +29.2 +7.2 25 +28 +28 жарко 1012.3 986.6
12 23.03 Ю 5 н/о н/о +28.8 +7.4 26 +28 +28 жарко 1012.7 987.0
13 23.03 ЮВ 4 н/о н/о +27.1 +7.0 28 +27 +27 жарко 1012.6 986.9
14 23.03 В 4 н/о н/о +25.5 +7.6 32 +26 +26 жарко 1012.4 986.7
15 23.03 В 4 н/о н/о +24.6 +7.7 34 +25 +25 комфорт 1012.2 986.5
16 23.03 В 3 н/о н/о +23.7 +8.2 37 +24 +24 комфорт 1011.7 986.0
17 23.03 В 3 н/о н/о +22.0 +7.0 38 +23 +23 комфорт 1011.3 985.6
18 23.03 В 6 н/о н/о +24.2 +10.1 41 +25 +25 комфорт 1010.5 984.8
19 23.03 В 7 н/о н/о +23.7 +9.7 41 +25 +25 комфорт 1010.2 984.5
20 23.03 В 5 н/о н/о +23.1 +9.8 43 +25 +25 комфорт 1010.9 985.2
21 23.03 СВ 7 н/о н/о +23.0 +10.1 44 +25 +25 комфорт 1010.8 985.1
23 23.03 СВ 6 н/о н/о +26.2 +9.5 35 +27 +27 жарко 1012.2 986.5
22 23.03 СВ 7 н/о н/о +24.0 +9.2 39 +25 +25 комфорт 1011.4 985.7
00 24.03 СВ 6 н/о н/о +28.5 +10.2 32 +29 +29 жарко 1012.6 986.9
01 24.03 СВ 6 н/о н/о +31.6 +10.3 27 +31 +31 жарко 1012.3 986.6
02 24.03 С 5 н/о н/о +32.6 +10.0 25 +32 +32 жарко 1011.8 986.1
03 24.03 СВ 4 н/о н/о +34.3 +8.8 21 +33 +33 жарко 1010.7 985.0
05 24.03 С 4 н/о н/о +35.6 +7.6 18 +34 +34 очень
жарко
1008.9 983.3
04 24.03 СЗ 3 н/о н/о +35.2 +8.1 19 +33 +33 жарко 1009.5 983.9
06 24.03 Ю 2 н/о н/о +36.3 +7.4 17 +34 +34 очень
жарко
1008.6 983.0
07 24.03 ЮВ 3 н/о н/о +36.5 +6.6 16 +34 +34 очень
жарко
1008.6 983.0
08 24.03 ЮВ 4 н/о н/о +36.6 +6.7 16 +34 +34 очень
жарко
1008.4 982.8
09 24.03 ЮВ 5 н/о н/о +35.4 +6.6 17 +33 +33 жарко 1008.9 983.3
11 24.03 ЮВ 4 н/о н/о +32.3 +7.2 21 +31 +31 жарко 1010.8 985.1
10 24.03 ЮВ 5 н/о н/о +33.7 +6.9 19 +32 +32 жарко 1009.5 983.9
12 24.03 ЮВ 6 н/о н/о +31.3 +7.7 23 +30 +30 жарко 1011.0 985.3
13 24.03 В 5 н/о н/о +30.4 +8.7 26 +30 +30 жарко 1010.7 985.0
14 24.03 В 7 н/о н/о +29.5 +9.1 28 +29 +29 жарко 1010.2 984.5
15 24.03 В 6 н/о н/о +28.6 +8.8 29 +28 +28 жарко 1010.1 984.4
17 24.03 В 5 н/о н/о +26.3 +8.8 33 +27 +27 жарко 1009.5 983.9
16 24.03 В 6 н/о н/о +27.6 +9.0 31 +28 +28 жарко 1009.7 984.1
18 24.03 В 4 н/о н/о +25.1 +8.6 35 +26 +26 жарко 1009.4 983.8
19 24.03 ЮВ 4 н/о н/о +24.1 +8.5 37 +25 +25 комфорт 1009.4 983.8
20 24.03 В 5 н/о н/о +24.2 +9.0 38 +25 +25 комфорт 1009.4 983.8
21 24.03 В 5 н/о н/о +25.4 +9.7 37 +26 +26 жарко 1010.3 984.6
23 24.03 В 4 н/о н/о +28.9 +10.1 31 +29 +29 жарко 1011.7 986.0
22 24.03 Ю 3 н/о н/о +25.3 +9.2 36 +26 +26 жарко 1011.5 985.8
00 25.03 СВ 6 н/о н/о +31.5 +10.2 27 +31 +31 жарко 1011.9 986.2
01 25.03 СВ 5 н/о н/о +33.6 +10.2 24 +33 +33 жарко 1011.8 986.1
02 25.03 В 4 н/о н/о +35.2 +8.9 20 +34 +34 очень
жарко
1011.4 985.7
03 25.03 В 3 н/о н/о +36.2 +8.1 18 +34 +34 очень
жарко
1010.5 984.8
04 25.03 В 2 н/о н/о +36.5 +6.6 16 +34 +34 очень
жарко
1009.5 983.9
05 25.03 В 3 н/о н/о +37.0 +5.1 14 +34 +34 очень
жарко
1008.8 983.2
06 25.03 В 4 н/о н/о +37.8 +4.7 13 +35 +35 очень
жарко
1008.3 982.7
07 25.03 ЮВ 3 н/о н/о +38.3 +3.9 12 +35 +35 очень
жарко
1007.9 982.3
08 25.03 В 4 н/о н/о +38.1 +3.8 12 +35 +35 очень
жарко
1007.9 982.3
09 25.03 В 3 н/о н/о +36.5 +4.7 14 +34 +34 очень
жарко
1008.3 982.7
10 25.03 В 3 н/о н/о +33.5 +5.1 17 +31 +31 жарко 1009.1 983.5
11 25.03 В 3 н/о н/о +32.5 +5.9 19 +30 +30 жарко 1009.7 984.1
12 25.03 ЮВ 4 н/о н/о +30.9 +6.0 21 +29 +29 жарко 1010.3 984.6
13 25.03 ЮВ 5 н/о н/о +29.5 +6.2 23 +28 +28 жарко 1010.2 984.5
14 25.03 ЮВ 5 н/о н/о +30.0 +7.2 24 +29 +29 жарко 1009.8 984.2
15 25.03 В 6 н/о н/о +30.1 +7.9 25 +29 +29 жарко 1009.6 984.0
16 25.03 В 5 н/о н/о +29.4 +7.9 26 +29 +29 жарко 1009.7 984.1
17 25.03 В 6 н/о н/о +28.8 +8.5 28 +28 +28 жарко 1009.4 983.8
18 25.03 В 5 н/о н/о +27.3 +8.2 30 +27 +27 жарко 1009.2 983.6
19 25.03 В 6 н/о н/о +27.1 +8.0 30 +27 +27 жарко 1009.1 983.5
20 25.03 В 6 н/о н/о +26.3 +8.3 32 +26 +26 жарко 1009.2 983.6
21 25.03 В 7 н/о н/о +26.6 +8.6 32 +27 +27 жарко 1009.5 983.9
22 25.03 В 7 н/о н/о +28.1 +8.4 29 +28 +28 жарко 1009.8 984.2

 

Местоположение метеостанции Coober Pedy Airport (Южная Австралия, Австралия): широта -29.03 долгота 134.71 высота над уровнем моря 226 м.

В архиве по умолчанию представлена погода в Coober Pedy Airport за последнюю неделю. Архивные данные за месяц целиком и за предыдущие месяцы, начиная с января 2011 года, Вы можете получить, выбрав интересующий диапазон дат из раскрывающегося списка и нажав кнопку "Ввод!".

Внимание! Время в таблицах - всемирное. Для получения местного времени необходимо прибавить поправку, которая в Coober Pedy Airport равна 9.5 ч.

Смотрите также архив погоды в соседних городах и на ближайших метеорологических станциях:

Погода в Oodnadatta Airport (Южная Австралия, Австралия) (180 км)
Погода в Tarcoola Aero (Южная Австралия, Австралия) (188 км)
Погода в Olympic Dam Aerodrome (Южная Австралия, Австралия) (264 км)
Погода в Woomera Aerodrome (Южная Австралия, Австралия) (311 км)
Погода в Marree Aero (Южная Австралия, Австралия) (332 км)
Погода в Ceduna Amo (Южная Австралия, Австралия) (358 км)
Погода в Pukatja (Южная Австралия, Австралия) (395 км)
Погода в Leigh Creek Airport (Южная Австралия, Австралия) (398 км)
Погода в Minnipa Pirsa (Южная Австралия, Австралия) (427 км)
Погода в Wudinna Aero (Южная Австралия, Австралия) (453 км)

Пояснения к столбцам:

Ветер - указаны скорость ветра в м/с - средняя за 10 мин, порывы в срок и между сроками (в фигурных скобках) и направление, откуда дует ветер: С - северный, СВ - северо-восточный, В - восточный, ЮВ - юго-восточный, Ю - южный, ЮЗ - юго-западный, З - западный, СЗ - северо-западный.
Видимость - горизонтальная дальность видимости в метрах или километрах. При видимости от 1 до 10 км при отсутствии осадков обычно наблюдается дымка, при ухудшении видимости до 1 км и менее - туман. В сухую погоду видимость может ухудшаться дымом, пылью или мглою.
Явления - указаны атмосферные явления, наблюдавшиеся в срок или в последний час перед сроком; фигурными скобками обозначены явления, наблюдавшиеся между сроками (за 1-3 часа до срока); квадратными скобками обозначены град или гололедные отложения с указанием их диаметра в мм.
Облачность - указаны через наклонную черту общая и нижняя облачность в баллах и высота нижней границы облаков в метрах; квадратными скобками обозначены формы облаков: Ci - перистые, Cs - перисто-слоистые, Cc - перисто-кучевые, Ac - высококучевые, As - высокослоистые, Sc - слоисто-кучевые, Ns - слоисто-дождевые, Cu - кучевые, Cb - кучево-дождевые. Подробнее классификацию облаков см. в Атласе облаков (PDF).
T - Температура воздуха - температура, измеренная на высоте 2 м над землей.
Td - Температура точки росы - температура, при понижении до которой содержащийся в воздухе водяной пар достигнет насыщения.
f - Относительная влажность воздуха - влажноcть воздуха, измеренная на высоте 2 м над землей.
Te - Эффективная температура - температура, которую ощущает одетый по сезону человек в тени. Характеристика душности погоды. При расчете учитывается влияние влажности воздуха и скорости ветра на теплоощущения человека.
Tes - Эффективная температура на солнце - температура, которую ощущает человек, с поправкой на солнечный нагрев. Характеристика знойности погоды. Зависит от высоты солнца над горизонтом, облачности и скорости ветра. Ночью, в пасмурную погоду, а также при ветре 12 м/с и более поправка равна нулю.
P - Атмосферное давление - приведенное к уровню моря атмосферное давление.
Po - Атмосферное давление - измеренное на уровне метеостанции атмосферное давление.
Tmin - Минимальная температура - минимум температуры воздуха на высоте 2 м над землей.
Tmax - Максимальная температура - максимум температуры воздуха на высоте 2 м над землей.
R - Количество осадков - Количество выпавших осадков, мм. При наведении курсора мыши на число - период времени, за который выпало указанное количество осадков.
S - Снежный покров - Высота снежного покрова, см. При наведении курсора мыши на число - состояние снежного покрова и степень покрытия местности в баллах.